Location: Observatoire de Paris
(48.8363°N, 2.3365°E)
Time: 10:28:14
(UTC+01:00)

SR - Visible Passes

Search period start: 03 August 2021 00:00
Search period end: 13 August 2021 00:00
Orbit: 577 x 877 km, 66.7° (Epoch: 02 August)

Date Brightness Start Highest point End Pass type
(mag) Time Alt. Az. Time Alt. Az. Time Alt. Az.
06 Aug ? 04:06:12 10° SE 04:08:12 12° ESE 04:10:11 10° E visible
07 Aug ? 04:54:28 10° S 04:59:44 37° ESE 05:04:43 10° NE visible
08 Aug ? 04:06:01 10° SSE 04:10:12 21° ESE 04:14:14 10° ENE visible
09 Aug ? 03:19:26 10° ESE 03:20:50 11° ESE 03:22:13 10° E visible
09 Aug ? 04:56:19 10° SSW 05:02:00 62° ESE 05:07:20 10° NE visible
10 Aug ? 04:07:11 10° S 04:12:20 35° ESE 04:17:14 10° NE visible
11 Aug ? 03:18:49 10° SSE 03:22:49 20° ESE 03:26:40 10° ENE visible
11 Aug ? 04:58:38 10° SW 05:04:23 83° NW 05:09:45 10° NE visible
12 Aug ? 04:09:33 13° SSW 04:14:35 58° ESE 04:19:51 10° NE visible
